Regional Weather Roundup
Issued by NWS Charleston, SC

Home | Current Version | Previous Version | Text Only | Print | Product List | Glossary On
Versions: 1 2 3 4 5 6 7 8 9 10 11 12 13 14 15 16 17 18 19 20 21 22 23 24 25 26 27 28 29 30 31 32 33 34 35 36 37 38 39 40 41 42 43 44 45 46 47 48 49 50
000
ASUS42 KCHS 191827
RWRCHS

Regional Weather Roundup
National Weather Service Charleston SC
200 PM EDT THU APR 19 2018

NOTE: "fair" indicates few or no clouds below 12,000 feet with no
significant weather and/or obstructions to visibility.

Not all stations are quality controlled. Use data with caution,
especially dewpoint observations.

SCZ027-030-031-034>040-042>050-191900-
...Southeast South Carolina...

CITY           SKY/WX    TMP DP  RH WIND       PRES   REMARKS
N Charleston   FAIR      82  57  42 W18G26    29.91F
6HR MIN TEMP:  66; 6HR MAX TEMP:  83;

Waterfront Prk   N/A     79  60  52 W12G20    29.75F
Mount Pleasant FAIR      82  59  44 W13G23    29.91S
Johns Island   MOCLDY    79  66  65 S10G18    29.92S
Pinopolis        N/A    N/A N/A N/A W16G26    29.83F
Moncks Corner  FAIR      79  54  41 W9G21     29.91S
Summerville    MOCLDY    79  57  47 W16G22    29.93R
Beaufort MCAS  FAIR      83  61  47 W17G29    29.94F
6HR MIN TEMP:  67; 6HR MAX TEMP:  84;

Beaufort Arpt  FAIR      82  61  47 W22G28    29.93F
Hilton Head Is NOT AVBL
Walterboro     MOCLDY    81  55  41 W25G32    29.94S
Allendale      MOCLDY    79  57  47 W10       29.94S

...Southern Midlands and Pee Dee...

CITY           SKY/WX    TMP DP  RH WIND       PRES   REMARKS
Georgetown     FAIR      81  54  39 W17G31    29.89S
Kingstree      FAIR      81  52  36 SW14G26   29.87F
Orangeburg     PTSUNNY   78  53  41 W20G29    29.92R
6HR MIN TEMP:  65; 6HR MAX TEMP:  81;

Barnwell       FAIR      81  52  36 W15G25    29.94S
Aiken          FAIR      77  37  24 W24G38    29.99R
Manning        FAIR      75  50  41 W13G26    29.90S
Columbia       FAIR      82  43  25 W24G36    29.90S
6HR MIN TEMP:  67; 6HR MAX TEMP:  82;

Sumter         MOSUNNY   81  46  28 W20G30    29.86S
6HR MIN TEMP:  66; 6HR MAX TEMP:  82; 6HR PCP: TRACE;

Florence       FAIR      82  50  32 W21G35    29.86R
6HR MIN TEMP:  68; 6HR MAX TEMP:  82;

Myrtle Beach   FAIR      82  58  43 W21G29    29.87S
N Myrtle Beach FAIR      82  54  37 W17G29    29.83F
6HR MIN TEMP:  68; 6HR MAX TEMP:  83;


$$

GAZ063-065-086>088-099>101-113>116-118-119-134>141-150-191900-
...Southeast Georgia...

CITY           SKY/WX    TMP DP  RH WIND       PRES   REMARKS
Savannah Arpt  FAIR      83  60  45 W21G33    29.97F
6HR MIN TEMP:  66; 6HR MAX TEMP:  84;

Hunter AAF     FAIR      83  61  47 W21G28    29.94F
6HR MIN TEMP:  65; 6HR MAX TEMP:  84;

Fort Stewart   FAIR      82  60  45 W15G24    29.96F
6HR MIN TEMP:  66; 6HR MAX TEMP:  82;

Statesboro     PTSUNNY   81  54  39 W16G23    29.98F
Sylvania       FAIR      81  63  54 W12G20    29.97F
Claxton        FAIR      82  61  49 SW16G23   29.99S

...CSRA, Central and far Southeast Georgia...

CITY           SKY/WX    TMP DP  RH WIND       PRES   REMARKS
Thomson        FAIR      75  41  29 N13G26    30.04R
Augusta-Bush   FAIR      80  48  32 W18G29    29.95S
6HR MIN TEMP:  65; 6HR MAX TEMP:  81;

Augusta-Daniel FAIR      80  48  32 W9G24     29.97R
Swainsboro     FAIR      81  57  44 W17G25    29.99F
Vidalia        PTSUNNY   79  61  53 W13G22    30.01S
Eastman        CLOUDY    79  45  30 W12G23    30.04S
Hazlehurst     FAIR      81  57  44 W9G18     30.01S
Alma           FAIR      82  60  47 W13G22    30.01F
6HR MIN TEMP:  65; 6HR MAX TEMP:  84;

Waycross       PTSUNNY   84  56  37 W12G18    30.01F
Jesup          FAIR      84  57  39 W14G26    30.00F
Baxley         FAIR      79  59  50 W15G22    30.01S
Brunswick      FAIR      82  59  44 SW14G21   30.00F
Saint Simons   FAIR      83  62  49 W13G24    30.00F
6HR MIN TEMP:  64; 6HR MAX TEMP:  83;


$$

SCZ027-028-034-036>038-045-046-048>050-GAZ119-141-191900-
...Lake and Supplemental Coastal Observations...

STATION/POSITION TIME  TEMP    WIND        PRES    WAVE   SWELL
                       AIR SEA DIR/SP/G            HT/PER HT/PER/DIR
                 (UTC) (F)     (DEG/KT/KT) (MB)    (FT/S) (FT/S/D)
Winyah Bay       1745   80     270/ 15     1012.0S
Lake Murray      1720   73     270/ 15/ 25 1011.9F
ACE Basin NERRS  1745   81     350/  9       N/A
Fort Pulaski     1800   79 65  280/ 15/ 18 1014.8
Sapelo Island    1800   80     260/ 13     1015.0

$$

ANZ835-935-AMZ111-154-330-350-352-354-370-450-454-472-191900-
...C-MAN and Buoy Observations...

STATION/POSITION TIME  TEMP    WIND        PRES    WAVE   SWELL
                       AIR SEA DIR/SP/G            HT/PER HT/PER/DIR
                 (UTC) (F)     (DEG/KT/KT) (MB)    (FT/S) (FT/S/D)
Buoy 41004       1810   68 67  220/ 21/ 25 1013.9
Buoy 41008       1750   67 66  190/ 16/ 19 1015.3F   3/ 5   2/110/10
Folly Beach CMAN 1800   69     210/ 15/ 18 1014.1F
Capers Nearshore 1808   66 63  230/ 17/ 23 1013.2S
Fripp Nearshore  1808   66 64  220/ 14/ 17 1014.0F


STATION/POSITION TIME  TEMP    WIND        PRES    WAVE   SWELL
                       AIR SEA DIR/SP/G            HT/PER HT/PER/DIR
                 (UTC) (F)     (DEG/KT/KT) (MB)    (FT/S) (FT/S/D)
5E St. Marys GA  1800      67                N/A     2/ 5
Frying Pan Buoy  1810   67 65  210/ 21/ 27 1012.0
Buoy 41025       1810   68 68  230/ 25/ 31 1008.7
Cape Lookout NC  1800          220/ 18/ 24 1009.0S
Buoy 41002       1810   73 72  220/ 17/ 23 1016.0
Buoy 41010       1810   75 74  230/ 10/ 14 1019.3
St Augustine FL  1800   80 67  240/ 15/ 22 1018.1F


$$




USA.gov is the U.S. government's official web portal to all federal, state and local government web resources and services.